Location: *
(51.4660°N, 0.3360°W)
Time: 02:23:20
(UTC+00:00)

Cosmos 2297 Rocket - Visible Passes

Search period start: 07 December 2019 00:00
Search period end: 17 December 2019 00:00
Orbit: 840 x 843 km, 71.0° (Epoch: 05 December)

Date Brightness Start Highest point End Pass type
(mag) Time Alt. Az. Time Alt. Az. Time Alt. Az.
07 Dec 5.0 02:42:30 12° ENE 02:42:30 12° ENE 02:43:03 10° ENE visible
07 Dec 2.7 04:24:20 52° NE 04:24:20 52° NE 04:28:35 10° NNE visible
07 Dec 3.2 06:06:12 23° WNW 06:07:39 26° NW 06:12:20 10° NNE visible
08 Dec 3.3 04:10:09 37° NE 04:10:09 37° NE 04:13:27 10° NNE visible
08 Dec 3.1 05:51:59 26° NW 05:52:28 26° NW 05:57:14 10° NNE visible
09 Dec 3.8 03:55:50 27° NE 03:55:50 27° NE 03:58:20 10° NNE visible
09 Dec 3.2 05:37:40 27° NW 05:37:40 27° NW 05:42:08 10° NNE visible
10 Dec 4.2 03:41:26 21° NE 03:41:26 21° NE 03:43:12 10° NNE visible
10 Dec 3.3 05:23:15 26° NNW 05:23:15 26° NNW 05:27:01 10° NNE visible
10 Dec 4.1 07:06:11 10° NW 07:08:17 12° NNW 07:10:23 10° N visible
11 Dec 4.6 03:26:58 16° NE 03:26:58 16° NE 03:28:05 10° NNE visible
11 Dec 3.5 05:08:47 24° NNW 05:08:47 24° NNW 05:11:55 10° NNE visible
11 Dec 4.1 06:50:54 10° NW 06:53:05 12° NNW 06:55:17 10° N visible
12 Dec 4.8 03:12:26 13° NE 03:12:26 13° NE 03:12:57 10° NE visible
12 Dec 3.8 04:54:15 22° N 04:54:15 22° N 04:56:49 10° NNE visible
12 Dec 4.1 06:36:04 11° NW 06:37:54 12° NNW 06:40:11 10° N visible
13 Dec 4.0 04:39:41 20° N 04:39:41 20° N 04:41:42 10° NNE visible
13 Dec 4.1 06:21:30 12° NNW 06:22:42 13° NNW 06:25:05 10° N visible
14 Dec 4.2 04:25:04 17° N 04:25:04 17° N 04:26:36 10° NNE visible
14 Dec 4.1 06:06:53 13° NNW 06:07:32 13° NNW 06:09:59 10° N visible
15 Dec 4.4 04:10:26 15° NNE 04:10:26 15° NNE 04:11:30 10° NNE visible
15 Dec 4.1 05:52:14 13° NNW 05:52:20 13° NNW 05:54:54 10° N visible
16 Dec 4.6 03:55:46 13° NNE 03:55:46 13° NNE 03:56:23 10° NNE visible
16 Dec 4.2 05:37:34 13° NNW 05:37:34 13° NNW 05:39:48 10° N visible
16 Dec 4.3 07:22:47 10° N 07:23:59 11° N 07:25:13 10° NNE visible
